Home   Weather   Tartu   Past weeks

Flag for Estonia Past Weather in Tartu, Estonia — Yesterday and Last 2 Weeks

Now
37 °F

Low clouds.


Feels Like: 26 °F
Forecast: 15 / 28 °F
Wind: 25 mph from West

Location: Tartu/Ulenurme

Current Time: Dec 5, 2016 at 6:41:33 am

Latest Report: Dec 5, 2016 at 5:50 am


Visibility: N/A

Pressure: 29.56 "Hg

Humidity: 93%

Dew Point: 36 °F

Location of TartuLocation

Past Weather in Tartu — Graph

°F

Tartu Temperature Yesterday

Maximum temperature yesterday: 28 °F (at 10:50 pm)
Minimum temperature yesterday: 14 °F (at 4:50 pm)
Average temperature yesterday: 21 °F

High & Low Weather Summary for the Past Weeks

 TemperatureHumidityPressure
High46 °F (Nov 20, 8:50 am)93% (Nov 20, 4:50 am)30.24 "Hg (Nov 20, 4:50 am)
Low14 °F (Dec 4, 4:50 pm)51% (Nov 30, 2:50 am)29.12 "Hg (Nov 26, 7:50 pm)
Average32 °F85%29.80 "Hg
* Reported Nov 20 4:50 am — Dec 5 4:50 am, Tartu, Weather by CustomWeather, © 2016

Note: Actual official high and low records may vary slightly from our data, if they occured in-between our weather recording intervals... More about our weather records

Advertising

Tartu Weather History for the Previous 24 Hours

Scroll right to see more
 ConditionsComfort  
Time TempWeatherWind HumidityBarometerVisibility
4:50 am
Mon, Dec 5
37 °FFog.25 mph87%29.59 "Hg6 mi
3:50 am36 °FFog.21 mph87%29.62 "Hg2 mi
2:50 am34 °FLight rain. Low clouds.21 mph93%29.68 "Hg2 mi
1:50 am32 °FLow clouds.21 mph93%29.71 "HgN/A
12:50 am32 °FLow clouds.21 mph87%29.77 "HgN/A
11:50 pm
Sun, Dec 4
28 °FLow clouds.21 mph86%29.83 "HgN/A
10:50 pm28 °FLight snow. Mostly cloudy.20 mph80%29.89 "HgN/A
9:50 pm25 °FLight snow. Overcast.16 mph80%29.95 "Hg4 mi
8:50 pm23 °FMostly cloudy.14 mph80%30.01 "HgN/A
7:50 pm21 °FClear.10 mph80%30.07 "Hg10 mi
6:50 pm18 °FClear.8 mph86%30.09 "Hg10 mi
5:50 pm18 °FClear.10 mph86%30.12 "Hg10 mi
4:50 pm14 °FClear.7 mph85%30.15 "Hg10 mi
3:50 pm19 °FPassing clouds.9 mph79%30.15 "HgN/A
2:50 pm21 °FOvercast.7 mph80%30.15 "HgN/A
1:50 pm19 °FPartly sunny.9 mph86%30.15 "HgN/A
12:50 pm21 °FPartly sunny.9 mph80%30.12 "HgN/A
11:50 am21 °FOvercast.6 mph80%30.12 "HgN/A
10:50 am19 °FOvercast.8 mph86%30.12 "HgN/A
9:50 am19 °FOvercast.10 mph79%30.09 "HgN/A
8:50 am18 °FOvercast.9 mph86%30.09 "HgN/A
7:50 am18 °FOvercast.10 mph86%30.07 "HgN/A
6:50 am18 °FOvercast.10 mph86%30.07 "HgN/A
Weather by CustomWeather, © 2016

See weather overviewHow to use our weather pages